This is the latest recevied weather packets stored in our database for station/object GBTWP-2. If no packets are shown the sender has not sent any weather packets the latest 10 day(s).
| Time | Temp. | Humidity | Pressure | Rain* | Wind** | Luminosity | Snow |
|---|---|---|---|---|---|---|---|
| 1777771802 | 4.44° C | 67% | 1018 hPa | 0 mm | - | 0 W/m² | - |
| 1777771202 | 5° C | 64% | 1018 hPa | 0 mm | - | 0 W/m² | - |
| 1777770902 | 5.56° C | 62% | 1018 hPa | 0 mm | - | 0 W/m² | - |
| 1777770601 | 5.56° C | 61% | 1017.9 hPa | 0 mm | - | 0 W/m² | - |
| 1777770302 | 5.56° C | 59% | 1017.9 hPa | 0 mm | - | 0 W/m² | - |
| 1777770001 | 6.11° C | 57% | 1017.7 hPa | 0 mm | - | 0 W/m² | - |
| 1777769702 | 6.67° C | 56% | 1017.6 hPa | 0 mm | - | 0 W/m² | - |
| 1777769102 | 6.67° C | 51% | 1017.9 hPa | 0 mm | - | 1 W/m² | - |
| 1777768802 | 6.67° C | 52% | 1017.7 hPa | 0 mm | - | 1 W/m² | - |
| 1777768501 | 7.22° C | 53% | 1017.7 hPa | 0 mm | - | 2 W/m² | - |
| 1777768202 | 7.22° C | 50% | 1017.7 hPa | 0 mm | - | 3 W/m² | - |
| 1777767901 | 7.78° C | 50% | 1017.6 hPa | 0 mm | - | 4 W/m² | - |
| 1777767302 | 7.78° C | 51% | 1017.7 hPa | 0 mm | - | 6 W/m² | - |
| 1777767002 | 7.78° C | 47% | 1017.6 hPa | 0 mm | - | 8 W/m² | - |
| 1777766402 | 8.33° C | 47% | 1017.8 hPa | 0 mm | - | 13 W/m² | - |
| 1777766101 | 8.33° C | 48% | 1018 hPa | 0 mm | - | 14 W/m² | - |
| 1777765502 | 7.78° C | 49% | 1017.8 hPa | 0 mm | - | 17 W/m² | - |
| 1777765201 | 7.78° C | 47% | 1018 hPa | 0 mm | - | 19 W/m² | - |
| 1777764902 | 7.78° C | 46% | 1017.7 hPa | 0 mm | - | 21 W/m² | - |
| 1777764601 | 7.78° C | 46% | 1018 hPa | 0 mm | - | 16 W/m² | - |
| 1777764302 | 8.33° C | 45% | 1017.9 hPa | 0 mm | - | 17 W/m² | - |
| 1777764001 | 8.33° C | 44% | 1017.9 hPa | 0 mm | - | 25 W/m² | - |
| 1777763401 | 8.89° C | 44% | 1018 hPa | 0 mm | - | 18 W/m² | - |
| 1777763102 | 9.44° C | 42% | 1018 hPa | 0 mm | - | 21 W/m² | - |
| 1777762502 | 10° C | 41% | 1017.9 hPa | 0 mm | - | 26 W/m² | - |
* Rain latest hour (hover to see other rain measurements)
** Current wind speed in m/s (hover to see current wind gust speed)